This demonstration page uses our WeatherBlox Daily Observations layout. Learn more.

Left ArrowRight Arrow

41.86663, -103.66717

Hourly Observations for July 28, 2018

Temp ( °F °C ) Dew Point ( °F °C ) Humidity (%) Winds ( mph kmh ) Pressure ( in mb ) Visibility ( mi km ) Precip ( " mm )
12:53 am 00:53 Clear 63 17.2 62 16.7 97 97 SSW 3 6 30.12 1020 10 16 N/A
1:27 am 01:27 Mostly Cloudy with Nearby Thunderstorms 63 17.2 63 17.2 100 100 NNE 14 22 30.09 1019 10 16 N/A
1:42 am 01:42 Cloudy 63 17 61 16 94 94 NNE 18 30 30.06 1018 10 16 N/A
1:53 am 01:53 Cloudy 63 17.2 61 16.1 93 93 NE 13 20 30.09 1019 10 16 N/A
2:29 am 02:29 Partly Cloudy 58 14.4 57 13.9 97 97 ENE 10 17 30.06 1018 10 16 N/A
2:53 am 02:53 Mostly Cloudy 58 14.4 58 14.4 100 100 N N/A 30.09 1019 10 16 N/A
3:41 am 03:41 Partly Cloudy 58 14.4 57 13.9 97 97 SSE 6 9 30.06 1018 10 16 N/A
3:53 am 03:53 Mostly Clear 58 14.4 57 13.9 97 97 N N/A 30.10 1019 10 16 N/A
4:53 am 04:53 Clear 56 13.3 56 13.3 100 100 N N/A 30.09 1019 10 16 N/A
5:24 am 05:24 Mostly Cloudy 57 13.9 57 13.9 100 100 SE 3 6 30.06 1018 10 16 N/A
5:53 am 05:53 Cloudy 58 14.4 58 14.4 100 100 SSE 5 7 30.08 1019 10 16 N/A
6:53 am 06:53 Cloudy 59 15 58 14.4 96 96 NNE 6 9 30.11 1020 10 16 N/A
7:17 am 07:17 Mostly Cloudy 59 15 59 15 100 100 NE 5 7 30.09 1019 10 16 N/A
7:53 am 07:53 Mostly Sunny 62 16.7 59 15 90 90 N N/A 30.10 1019 10 16 N/A
8:53 am 08:53 Sunny 65 18.3 59 15 81 81 N N/A 30.11 1020 10 16 N/A
9:53 am 09:53 Sunny 68 20 61 16.1 78 78 SSW 8 13 30.06 1018 10 16 N/A
10:53 am 10:53 Sunny 73 22.8 63 17.2 71 71 N N/A 30.05 1018 10 16 N/A
11:53 am 11:53 Mostly Sunny 75 23.9 64 17.8 69 69 N N/A 30.04 1017 10 16 N/A
12:53 pm 12:53 Sunny 77 25 65 18.3 66 66 SE 9 15 30.01 1016 10 16 N/A
1:53 pm 13:53 Sunny 78 25.6 65 18.3 64 64 E 10 17 29.98 1015 10 16 N/A
2:53 pm 14:53 Sunny 77 25 65 18.3 66 66 E 12 19 30.00 1016 10 16 N/A
3:53 pm 15:53 Partly Cloudy 75 23.9 65 18.3 71 71 E 10 17 29.97 1015 10 16 N/A
4:53 pm 16:53 Sunny 76 24.4 63 17.2 64 64 E 20 31 29.99 1016 10 16 N/A
5:53 pm 17:53 Sunny 75 23.9 64 17.8 69 69 ENE 12 19 30.01 1016 10 16 N/A
6:53 pm 18:53 Sunny 73 22.8 64 17.8 74 74 ENE 15 24 30.00 1016 10 16 N/A
7:53 pm 19:53 Sunny 64 17.8 59 15 84 84 ENE 18 30 30.07 1018 10 16 N/A
8:53 pm 20:53 Mostly Cloudy 64 17.8 59 15 84 84 NE 9 15 30.12 1020 10 16 N/A
9:53 pm 21:53 Mostly Clear 63 17.2 60 15.6 90 90 S 13 20 30.06 1018 10 16 N/A
10:53 pm 22:53 Clear 61 16.1 59 15 93 93 SE 7 11 30.08 1019 10 16 N/A
11:53 pm 23:53 Clear 59 15 59 15 100 100 ENE 6 9 30.09 1019 10 16 N/A

Powered by AerisWeather